[[{"header":{"parameterUnit":"m.s-1","parameterCategory":1,"la1":30.2991,"la2":30.254,"lo1":-89.0895,"lo2":-89.0444,"dy":0.0017,"dx":0.0017,"nx":28,"ny":28,"refTime":"2025-03-23T09:00:00:Z","depth":0,"parameterNumber":2,"parameterNumberName":"U-component_of_WINDS"},"data":[0,0,0,0,0,0,0,0,0,0,0,0,0,0,0,0,0,0,0,0,0,0,0,0,0,0,0,0,0,0,0,0,0,0,0,0,0,0,0,0,0,0,0,0,0,0,0,0,0,0,0,0,0,0,0,0,0,0,0.3916,0.3916,0,0.3878,0.3878,0.3877,0.3876,0.3877,0.3877,0.3878,0.3839,0.3838,0.3836,0,0,0,0,0,0,0,0,0,0,0,0,0,0.3992,0.399,0.3916,0.3916,0.3915,0.3878,0.3877,0.3877,0.3876,0.3877,0.3877,0.3878,0.384,0.3838,0.3836,0,0,0,0,0,0,0,0,0,0,0,0,0,0.3957,0.399,0.3916,0.391,0.391,0.3878,0.3877,0.3877,0.3876,0.3877,0.3878,0.3878,0.384,0.3838,0.3836,0.3808,0,0,0.3829,0.3828,0,0,0,0,0,0,0,0,0.3959,0.3954,0.3912,0.3911,0.391,0.3883,0.389,0.3854,0.3876,0.3889,0.3878,0.3879,0.3853,0.385,0.3841,0.3806,0.3805,0.3829,0.3828,0.3827,0.3826,0,0,0,0,0,0,0,0.3961,0.3956,0.3901,0.3911,0.391,0.3911,0.3907,0.3883,0.3868,0.3888,0.3888,0.3883,0.3853,0.3843,0.384,0.3804,0.3829,0.3827,0.3826,0.3825,0.3748,0.3747,0,0,0,0,0,0,0.3965,0.3958,0.3902,0.39,0.3937,0.3909,0.3904,0.3891,0.3868,0.3865,0.3883,0.3883,0.3847,0.3843,0.3839,0.3807,0.3827,0.3825,0.3823,0.3748,0.3748,0.3747,0,0,0,0,0,0,0.3966,0.396,0.3904,0.3929,0.3922,0.3907,0.3892,0.389,0.388,0.3864,0.3861,0.3876,0.3847,0.3842,0.3816,0.3805,0.3824,0.3822,0.3749,0.3748,0.3747,0.3741,0,0,0,0,0,0,0.3968,0.396,0.3948,0.3929,0.392,0.3881,0.3891,0.3888,0.3876,0.3877,0.3857,0.3854,0.3847,0.382,0.3814,0.3803,0.382,0.375,0.3749,0.3748,0.3742,0.3739,0.3738,0,0,0,0,0,0.3971,0.3947,0.3948,0.3941,0.3905,0.388,0.3876,0.3868,0.3875,0.3864,0.3854,0.3855,0.3808,0.3817,0.3811,0.3798,0.3751,0.3749,0.3748,0.3743,0.374,0.3738,0,0,0,0,0,0,0.3965,0.3945,0.3945,0.3914,0.3899,0.388,0.3865,0.3865,0.3848,0.3849,0.3841,0.3837,0.3812,0.3803,0.3814,0.3772,0.378,0.3777,0.3779,0.3776,0.3774,0.3777,0.3818,0,0,0,0,0,0.3961,0.3942,0.3925,0.3899,0.3892,0.388,0.3869,0.3865,0.3849,0.3843,0.3831,0.3816,0.3798,0.3787,0.3769,0.3741,0.3738,0.3729,0.3727,0.3726,0.3723,0.371,0.3707,0.3741,0.3741,0.3741,0,0,0.3951,0.3937,0.3925,0.3898,0.3886,0.3868,0.3875,0.3854,0.3841,0.384,0.3815,0.3806,0.379,0.3763,0.3751,0.3755,0.3713,0.3724,0.3722,0.3721,0.3708,0.3705,0.3702,0.374,0.3741,0.3741,0,0,0.3923,0.391,0.3889,0.3877,0.3859,0.3852,0.3847,0.3829,0.3824,0.3799,0.3799,0.3783,0.3752,0.3741,0.3731,0.3703,0.3704,0.3698,0.3686,0.3674,0.3671,0.3669,0.366,0.3657,0.3695,0.3695,0.3695,0,0.3912,0.3884,0.3878,0.3858,0.3847,0.3846,0.3826,0.3815,0.3792,0.3785,0.379,0.3753,0.3741,0.3714,0.3707,0.3699,0.3694,0.37,0.3672,0.367,0.3667,0.3659,0.3656,0.3695,0.3695,0.3695,0.3695,0,0.3873,0.3854,0.3839,0.3818,0.3806,0.3785,0.3777,0.3766,0.3764,0.3757,0.3734,0.372,0.3701,0.3694,0.3692,0.3667,0.367,0.3674,0.3682,0.3664,0.3656,0.3653,0.3694,0.3694,0.3695,0.3695,0,0,0.3838,0.3817,0.3812,0.3804,0.3786,0.3771,0.3752,0.3734,0.3725,0.3711,0.3696,0.3671,0.3675,0.3664,0.366,0.3649,0.3631,0.3654,0.3654,0.3651,0.3605,0.3603,0.3599,0.3631,0.363,0.363,0.3607,0,0.3809,0.3775,0.3771,0.3741,0.3725,0.3726,0.371,0.3698,0.3692,0.3678,0.3671,0.3654,0.366,0.3654,0.3643,0.3635,0.3621,0.3637,0.3618,0.3618,0.3623,0.3595,0.3592,0.3571,0.3604,0.3603,0.3603,0,0.377,0.3756,0.3725,0.3713,0.3706,0.3691,0.3676,0.3662,0.365,0.3646,0.3636,0.3634,0.3617,0.3626,0.3603,0.3613,0.3606,0.3601,0.36,0.3598,0.3609,0.3593,0.3564,0.3561,0.3598,0.3598,0.3599,0,0.375,0.3723,0.3702,0.3695,0.3679,0.3669,0.3663,0.3651,0.3641,0.3629,0.3623,0.3608,0.36,0.3589,0.3584,0.3591,0.3562,0.357,0.3559,0.3559,0.3552,0.3553,0.3522,0.3547,0.3547,0.3547,0.3547,0,0.3718,0.3699,0.3693,0.368,0.366,0.3656,0.3637,0.363,0.3621,0.3608,0.3608,0.3595,0.359,0.3577,0.3574,0.3556,0.3552,0.355,0.3549,0.355,0.355,0.3545,0.3546,0.3546,0.3546,0.3546,0.3547,0,0.3691,0.3686,0.3663,0.3651,0.3648,0.3634,0.3625,0.3613,0.3608,0.3592,0.3588,0.358,0.3566,0.356,0.3542,0.354,0.352,0.352,0.3524,0.3524,0.3514,0.3515,0.3478,0.3474,0.3501,0.3501,0.3501,0,0.3671,0.3657,0.3645,0.3637,0.363,0.3616,0.3607,0.3604,0.3594,0.3581,0.3572,0.3558,0.3546,0.3523,0.3516,0.3503,0.3503,0.3492,0.3501,0.3504,0.3505,0.3506,0.3505,0.349,0.3489,0.3489,0.3489,0,0.3637,0.3636,0.3623,0.361,0.36,0.359,0.358,0.3573,0.3568,0.3558,0.3544,0.3535,0.3518,0.3505,0.3492,0.3486,0.3487,0.3486,0.3483,0.3484,0.3487,0.3487,0.352,0.3487,0.3487,0.3487,0.3487,0.3487,0.3613,0.3602,0.3593,0.358,0.3572,0.3564,0.3553,0.3548,0.3536,0.3522,0.3521,0.3507,0.3498,0.3481,0.3474,0.3463,0.3467,0.3462,0.3461,0.346,0.346,0.3489,0.3461,0.3461,0.3461,0.3461,0.3461,0,0.358,0.3575,0.3563,0.355,0.354,0.3544,0.3534,0.3525,0.3512,0.3504,0.3493,0.3479,0.3466,0.346,0.3448,0.3441,0.3441,0.3438,0.3438,0.3437,0.3457,0.3461,0.3438,0.3438,0.3438,0.3438,0.3438,0.3438,0.3562,0.3544,0.3543,0.3522,0.3517,0.3503,0.3498,0.349,0.3484,0.3468,0.3458,0.3454,0.3447,0.3435,0.3425,0.3423,0.3419,0.3416,0.3415,0.3433,0.3435,0.3438,0.3442,0.3415,0.3415,0.3396,0.3396,0.3396]},{"header":{"parameterUnit":"m.s-1","parameterCategory":1,"la1":30.2991,"la2":30.254,"lo1":-89.0895,"lo2":-89.0444,"dy":0.0017,"dx":0.0017,"nx":28,"ny":28,"refTime":"2025-03-23T09:00:00:Z","depth":0,"parameterNumber":3,"parameterNumberName":"V-component_of_WINDS"},"data":[0,0,0,0,0,0,0,0,0,0,0,0,0,0,0,0,0,0,0,0,0,0,0,0,0,0,0,0,0,0,0,0,0,0,0,0,0,0,0,0,0,0,0,0,0,0,0,0,0,0,0,0,0,0,0,0,0,0,2.4683,2.4685,0,2.481,2.4812,2.4813,2.4856,2.4855,2.4855,2.4854,2.4979,2.4982,2.4986,0,0,0,0,0,0,0,0,0,0,0,0,0,2.447,2.4473,2.4683,2.4685,2.4686,2.481,2.4812,2.4814,2.4856,2.4855,2.4854,2.4854,2.4977,2.4982,2.4986,0,0,0,0,0,0,0,0,0,0,0,0,0,2.4576,2.4475,2.4683,2.4722,2.4727,2.481,2.4812,2.4814,2.4856,2.4855,2.4854,2.4854,2.4976,2.4981,2.4987,2.5038,0,0,2.5005,2.5007,0,0,0,0,0,0,0,0,2.457,2.4584,2.4715,2.472,2.4725,2.4816,2.4782,2.4889,2.4856,2.4807,2.4854,2.4853,2.4925,2.4935,2.496,2.5044,2.5049,2.5005,2.5008,2.5011,2.5013,0,0,0,0,0,0,0,2.4563,2.4578,2.4733,2.4717,2.4723,2.4731,2.4746,2.4803,2.4868,2.4811,2.4815,2.4829,2.4928,2.4955,2.4963,2.5051,2.5005,2.501,2.5013,2.5016,2.5179,2.518,0,0,0,0,0,0,2.4549,2.4572,2.4729,2.4737,2.4644,2.4736,2.4752,2.4788,2.4868,2.488,2.483,2.4831,2.4945,2.4957,2.4968,2.5031,2.5011,2.5016,2.5019,2.5178,2.5179,2.518,0,0,0,0,0,0,2.4545,2.4563,2.4724,2.4656,2.4677,2.474,2.478,2.4791,2.4818,2.4882,2.4894,2.4846,2.4945,2.496,2.502,2.5036,2.5019,2.5024,2.5177,2.5179,2.518,2.5159,0,0,0,0,0,0,2.4538,2.4561,2.4583,2.4656,2.468,2.4776,2.4782,2.4794,2.4828,2.4831,2.49,2.4911,2.4946,2.5011,2.5026,2.5044,2.5028,2.5176,2.5178,2.5179,2.5158,2.5159,2.516,0,0,0,0,0,2.4531,2.4571,2.4584,2.4603,2.4709,2.4777,2.4791,2.4832,2.483,2.4851,2.4891,2.4909,2.5032,2.5017,2.5034,2.5054,2.5175,2.5177,2.5179,2.5158,2.5159,2.516,0,0,0,0,0,0,2.4497,2.4582,2.4597,2.4662,2.4712,2.4784,2.4812,2.4832,2.4882,2.4882,2.4928,2.4944,2.5,2.5033,2.5014,2.5105,2.5104,2.511,2.5082,2.5084,2.5085,2.5076,2.5033,0,0,0,0,0,2.4498,2.4548,2.4618,2.4669,2.4694,2.4748,2.4779,2.4806,2.4859,2.488,2.4926,2.4974,2.5024,2.5056,2.5105,2.5163,2.5177,2.5184,2.5185,2.5186,2.519,2.5221,2.5224,2.5187,2.5187,2.5187,0,0,2.4499,2.4551,2.458,2.4664,2.4706,2.4754,2.4766,2.4817,2.4853,2.4887,2.4947,2.4982,2.5039,2.5098,2.5126,2.5127,2.5203,2.5188,2.5188,2.5192,2.5223,2.5227,2.523,2.5189,2.5188,2.5188,0,0,2.4526,2.4571,2.4618,2.466,2.4723,2.4759,2.477,2.4839,2.4864,2.4925,2.4951,2.4992,2.5077,2.5117,2.5148,2.5187,2.5204,2.5201,2.5206,2.5235,2.5238,2.5241,2.5254,2.5258,2.5205,2.5205,2.5205,0,2.4519,2.4596,2.4639,2.4689,2.4724,2.4758,2.4805,2.4842,2.4918,2.494,2.494,2.5046,2.5088,2.5155,2.5164,2.5189,2.5201,2.5194,2.5235,2.5238,2.5241,2.5254,2.5258,2.5204,2.5204,2.5204,2.5204,0,2.4583,2.4635,2.4665,2.4738,2.4776,2.4824,2.4873,2.4906,2.4928,2.4963,2.5023,2.5073,2.5132,2.515,2.5173,2.522,2.5218,2.5226,2.5226,2.5243,2.5256,2.5261,2.5203,2.5203,2.5204,2.5204,0,0,2.4594,2.469,2.47,2.4733,2.4805,2.4845,2.4892,2.4951,2.4978,2.5028,2.5068,2.5138,2.5145,2.518,2.5206,2.5232,2.5258,2.5237,2.5239,2.5238,2.5311,2.5305,2.531,2.5269,2.527,2.5271,2.5306,0,2.463,2.4719,2.4759,2.4829,2.4876,2.4908,2.4949,2.4996,2.5029,2.5072,2.5108,2.5156,2.5163,2.5184,2.5211,2.5249,2.5273,2.5247,2.5305,2.5306,2.529,2.5317,2.5311,2.5342,2.5311,2.5312,2.5313,0,2.4684,2.4735,2.4811,2.4875,2.4896,2.4933,2.4989,2.5031,2.5083,2.5105,2.5143,2.5168,2.5217,2.5212,2.5278,2.526,2.5285,2.5307,2.5309,2.5316,2.5311,2.5324,2.5352,2.5357,2.5321,2.532,2.532,0,2.4683,2.4771,2.4827,2.4854,2.4931,2.4955,2.4988,2.504,2.5072,2.512,2.5141,2.5194,2.5222,2.5261,2.5299,2.5292,2.536,2.536,2.5378,2.5377,2.5392,2.539,2.5424,2.5408,2.5408,2.5408,2.5408,0,2.4719,2.4764,2.4828,2.4862,2.4912,2.4955,2.5003,2.5037,2.5082,2.5122,2.5152,2.5188,2.5236,2.5277,2.5306,2.5355,2.5368,2.5386,2.5393,2.5383,2.5381,2.5401,2.5399,2.5409,2.5409,2.5408,2.5408,0,2.4727,2.4772,2.4835,2.4902,2.492,2.4953,2.5009,2.5043,2.5076,2.5126,2.514,2.5192,2.5242,2.5284,2.5349,2.5368,2.5419,2.5428,2.5402,2.5406,2.5422,2.542,2.547,2.5478,2.5456,2.5456,2.5457,0,2.4747,2.4782,2.4853,2.4882,2.4915,2.4962,2.4995,2.5038,2.5071,2.5132,2.5157,2.521,2.5254,2.5332,2.5374,2.5423,2.5433,2.5447,2.5441,2.5429,2.5433,2.543,2.5433,2.5448,2.5448,2.5448,2.5448,0,2.4777,2.4798,2.4846,2.4901,2.494,2.4985,2.503,2.5052,2.5102,2.5137,2.519,2.5224,2.5291,2.5341,2.5395,2.5426,2.5444,2.5449,2.5456,2.5447,2.543,2.5439,2.5403,2.5448,2.5448,2.5448,2.5448,2.5448,2.4792,2.4824,2.4878,2.493,2.4969,2.501,2.5044,2.5082,2.5127,2.5186,2.5208,2.5261,2.5309,2.5383,2.5414,2.5454,2.5457,2.5467,2.5469,2.5471,2.5469,2.5424,2.5464,2.5464,2.5464,2.5464,2.5464,0,2.4823,2.4859,2.4906,2.4969,2.5009,2.5025,2.5075,2.5107,2.5154,2.5198,2.5241,2.53,2.5349,2.5395,2.5445,2.5468,2.5478,2.548,2.5479,2.5485,2.5465,2.5454,2.5471,2.5471,2.5471,2.5471,2.5471,2.5471,2.4844,2.4899,2.4925,2.4998,2.5033,2.5087,2.5114,2.5151,2.5187,2.5252,2.5293,2.5323,2.5368,2.5421,2.5466,2.5478,2.5495,2.5494,2.5508,2.5488,2.5487,2.5486,2.5476,2.5498,2.5498,2.5526,2.5526,2.5526]}]]